Flag for Switzerland Weather past 2 weeks in Lugano, Switzerland

Now
54 °F

Passing clouds.


Feels Like: 53 °F
Forecast: 43 / 72 °F
Wind: 5 mph from South

Location: Lugano Airport

Current Time: Apr 22, 2015 at 2:05:50 AM

Latest Report: Apr 22, 2015 at 1:20 AM


Visibility: N/A

Pressure: 30.24 "Hg

Humidity: 58%

Dew point: 39 °F

Location of LuganoLocation

Historic Weather in Lugano — Graph

°F

Lugano temperature yesterday

Maximum temperature yesterday: 75 °F (at 2:50 PM)
Minimum temperature yesterday: 41 °F (at 5:50 AM)
Average temperature yesterday: 59 °F

Past Weeks' High & Low Weather Summary

 TemperatureHumidityPressure
High104 °F (Apr 14, 3:20 PM)100% (Apr 18, 12:50 AM)30.42 "Hg (Apr 18, 12:50 AM)
Low32 °F (Apr 8, 7:20 AM)4% (Apr 14, 3:20 PM)29.86 "Hg (Apr 18, 1:20 PM)
Average56 °F55%30.21 "Hg
* Reported Apr 7 12:20 AM — Apr 22 12:50 AM, Lugano, Weather by CustomWeather, © 2015

Note: Actual official high and low records may vary slightly from our data, if they occured in-between our weather recording intervals... More about our weather records

Advertising

Lugano weather history for previous 24 hours

 ConditionsComfort  
Time TempWeatherWind HumidityBarometerVisibility
12:50 AM
Wed, Apr 22
55 °FPassing clouds.6 mph59%30.21 "HgN/A
12:20 AM54 °FClear.3 mph67%30.21 "Hg10 mi
11:50 PM
Tue, Apr 21
54 °FClear.3 mph72%30.21 "Hg10 mi
11:20 PM54 °FClear.2 mph67%30.21 "Hg10 mi
10:50 PM55 °FClear.1 mph63%30.21 "Hg10 mi
10:20 PM57 °FClear.2 mph63%30.21 "Hg10 mi
9:50 PM59 °FClear.2 mph55%30.21 "Hg10 mi
9:20 PM61 °FClear.2 mph52%30.21 "Hg10 mi
8:50 PM63 °FSunny.3 mph49%30.18 "Hg10 mi
8:20 PM66 °FSunny.3 mph46%30.18 "Hg10 mi
7:50 PM70 °FPassing clouds.6 mph35%30.15 "HgN/A
7:20 PM70 °FSunny.7 mph38%30.15 "Hg10 mi
6:50 PM72 °FSunny.10 mph33%30.15 "Hg10 mi
6:20 PM73 °FPassing clouds.9 mph31%30.15 "HgN/A
5:50 PM73 °FSunny.10 mph33%30.15 "Hg10 mi
5:20 PM73 °FSunny.14 mph33%30.15 "Hg10 mi
4:50 PM73 °FSunny.13 mph31%30.15 "Hg10 mi
4:20 PM75 °FSunny.12 mph29%30.15 "Hg10 mi
3:50 PM75 °FSunny.10 mph29%30.15 "Hg10 mi
3:20 PM75 °FSunny.10 mph27%30.18 "Hg10 mi
2:50 PM75 °FSunny.10 mph27%30.18 "Hg10 mi
2:20 PM73 °FSunny.8 mph23%30.18 "Hg10 mi
1:50 PM73 °FSunny.8 mph25%30.18 "Hg10 mi
1:20 PM72 °FSunny.7 mph25%30.21 "Hg10 mi
12:50 PM72 °FSunny.6 mph22%30.21 "Hg10 mi
12:20 PM68 °FSunny.6 mph26%30.24 "Hg10 mi
11:50 AM66 °FSunny.5 mph37%30.24 "Hg10 mi
11:20 AM64 °FSunny.3 mph32%30.24 "Hg10 mi
10:50 AM63 °FSunny.3 mph34%30.24 "Hg10 mi
10:20 AM59 °FSunny.3 mph39%30.24 "Hg10 mi
9:50 AM57 °FSunny.3 mph48%30.24 "Hg10 mi
9:20 AM59 °FSunny.1 mph48%30.27 "Hg10 mi
8:50 AM54 °FSunny.1 mph63%30.27 "Hg10 mi
8:20 AM45 °FSunny.3 mph87%30.27 "Hg10 mi
7:50 AM45 °FSunny.3 mph81%30.24 "Hg10 mi
7:20 AM43 °FClear.1 mph87%30.24 "Hg10 mi
6:50 AM43 °FClear.No wind93%30.21 "Hg10 mi
6:20 AM45 °FClear.1 mph81%30.21 "Hg10 mi
5:50 AM41 °FClear.3 mph87%30.21 "Hg10 mi
5:20 AM43 °FClear.2 mph87%30.21 "Hg10 mi
4:50 AM45 °FClear.1 mph87%30.18 "Hg10 mi
4:20 AM45 °FClear.1 mph93%30.18 "Hg10 mi
3:50 AM46 °FClear.1 mph82%30.18 "Hg10 mi
3:20 AM46 °FClear.2 mph87%30.18 "Hg10 mi
2:50 AM46 °FClear.2 mph87%30.15 "Hg10 mi
2:20 AM48 °FClear.1 mph82%30.15 "Hg10 mi
Weather by CustomWeather, © 2015

See weather overviewHow to use our weather pages